Regional Weather Roundup
Issued by NWS

Home | Current Version | Previous Version | Graphics & Text | Print | Product List | Glossary On
Versions: 1 2 3 4 5 6 7 8 9 10 11 12 13 14 15 16 17 18 19 20 21 22 23 24 25 26 27 28 29 30 31 32 33 34 35 36 37 38 39 40 41 42 43 44 45 46 47 48 49 50
000
ASUS43 KLMK 281202
RWRKY
KENTUCKY REGIONAL WEATHER ROUNDUP
NATIONAL WEATHER SERVICE LOUISVILLE KY
700 AM EST WED JAN 28 2015

NOTE "FAIR" INDICATES FEW OR NO CLOUDS BELOW 12,000 FEET
WITH NO SIGNIFICANT WEATHER AND/OR OBSTRUCTIONS TO VISIBILITY.

KYZ001>023-026-027-061>063-070>075-281300-
WESTERN AND SOUTH CENTRAL KENTUCKY

CITY           SKY/WX    TMP DP  RH WIND       PRES   REMARKS
PADUCAH        CLEAR     27  24  89 E3        30.28S
HENDERSON      CLEAR     28  21  74 E3        30.31R
OWENSBORO      CLEAR     29  21  71 SE12      30.32R WCI  19
HOPKINSVILLE   MOCLDY    30  28  90 CALM      30.31R
BOWLING GREEN  CLEAR     25  16  68 E5        30.33R WCI  19
GLASGOW        NOT AVBL
$$

KYZ024-025-028>034-038-045-046-053-281300-
NORTH CENTRAL KENTUCKY

CITY           SKY/WX    TMP DP  RH WIND       PRES   REMARKS
LOUISVILLE/SDF PTCLDY    21  13  71 E3        30.35R
LOUISVILLE/LOU PTCLDY    20  13  74 CALM      30.35R
FORT KNOX      CLEAR     17  13  85 CALM      30.32R
$$

KYZ035>037-039>044-047>052-055>060-089>105-281300-
NORTHEAST KENTUCKY

CITY           SKY/WX    TMP DP  RH WIND       PRES   REMARKS
LEXINGTON      PTCLDY    15  11  83 E6        30.33R WCI   6
COVINGTON      CLEAR     14  10  84 CALM      30.33R FOG
FRANKFORT      PTCLDY    14  10  84 E3        30.32R
$$

KYZ054-064>069-076>088-106>120-281300-
SOUTHEAST KENTUCKY

CITY           SKY/WX    TMP DP  RH WIND       PRES   REMARKS
JACKSON        CLEAR     15  10  80 CALM      30.30R
LONDON         CLEAR     19  10  68 CALM      30.31R
SOMERSET       NOT AVBL
MIDDLESBORO    NOT AVBL
MONTICELLO     SUNNY     16  13  88 CALM      30.34R
$$



USA.gov is the U.S. government's official web portal to all federal, state and local government web resources and services.